Temp
20 20 20 20 22 21 20 18 19 18 17 17 16 16 16 16 17 17 18 17 18 19 20 19 20 20 21 22 21 22 22 22 23 22 21 20 19 19 20 20 20 20 21
20 19 19 21 22 20 17 17 18 17 17 16 16 16 16 16 16 17 17 18 18 18 19 19 19 19 19 20 21 20 21 21 21 21 21 21 20 20 20 19 20 21 21
20 19 18 18 17 17 18 18 18 17 17 16 16 16 16 17 17 17 18 18 18 19 19 19 19 19 19 21 20 21 21 21 21 22 22 22 21 21 21 20 20 21 21
21 19 19 18 18 18 18 17 17 16 16 16 15 16 17 17 18 18 18 18 18 18 19 19 19 19 19 19 19 20 20 20 21 21 22 23 23 22 22 22 22 21 23
19 18 18 17 17 17 17 16 16 15 15 16 17 17 17 17 18 18 18 18 18 19 19 19 19 19 19 19 19 20 20 20 21 23 23 23 23 22 22 22 22 23 23
16 16 16 16 16 16 15 15 15 16 16 16 17 17 17 18 19 18 18 19 19 19 19 19 20 19 19 18 19 18 18 18 19 20 22 23 22 21 22 21 21 21 21
16 16 16 16 15 15 15 16 16 16 16 17 17 18 18 18 18 18 18 19 20 20 20 20 20 21 19 19 18 18 18 18 18 18 18 19 19 20 20 20 20 19 20
17 17 16 16 16 16 16 16 17 17 17 17 18 18 18 19 18 18 18 17 19 19 20 20 20 20 20 20 19 19 19 19 19 18 18 18 18 19 19 19 19 19 19
18 16 16 16 16 16 17 17 17 18 18 18 18 18 18 19 18 18 17 17 19 19 20 20 20 20 20 19 19 19 19 20 21 20 20 20 20 19 19 18 19 20 21
19 18 18 17 17 17 17 17 18 19 19 19 19 19 19 19 18 18 17 18 20 20 21 20 20 19 19 19 18 19 19 19 20 21 20 20 20 19 19 19 18 19 20
19 18 18 18 18 18 18 18 18 19 20 19 19 19 19 18 18 18 18 18 20 21 22 22 22 21 20 19 18 18 19 20 20 20 20 21 21 20 20 20 18 18 19
20 20 19 19 19 19 18 18 18 19 19 19 19 19 20 19 19 18 18 18 18 19 20 21 22 22 21 20 20 19 19 19 18 20 21 22 22 22 22 21 20 19 19
20 20 19 19 19 19 19 19 19 19 20 20 21 21 22 22 20 19 19 18 18 18 18 20 20 19 19 19 19 19 19 17 18 20 21 22 22 22 21 21 20 20 18
20 20 20 20 20 20 20 20 20 21 22 22 22 23 23 23 23 22 19 19 19 18 18 18 19 20 20 20 20 19 19 18 20 21 21 21 21 21 20 20 20 20 19
21 21 21 21 20 21 20 22 22 22 23 23 22 23 24 24 23 22 22 21 21 20 19 20 21 21 21 21 21 21 22 20 20 20 20 20 20 19 19 19 19 19 18
22 22 23 23 22 22 23 22 21 21 20 21 21 20 21 21 20 20 20 21 20 19 19 21 22 22 23 23 23 23 23 23 22 21 20 19 19 19 20 20 19 19 19
22 23 24 24 25 24 23 22 22 22 21 21 21 21 21 20 20 20 20 20 20 19 19 20 21 22 23 23 23 23 23 23 22 21 21 20 20 20 19 19 19 18 18
22 22 24 24 24 25 23 23 22 22 22 21 20 20 20 20 20 20 19 18 17 18 17 20 22 23 23 23 23 23 23 22 21 20 20 19 19 19 18 18 18 17 17
22 23 23 23 24 25 25 25 22 22 23 23 24 21 21 20 19 19 19 18 19 21 22 21 20 22 22 23 23 22 22 21 21 20 20 19 18 18 18 17 18 17 16
21 22 23 24 24 24 24 24 23 21 20 23 22 22 23 20 18 18 18 18 19 20 21 22 22 22 21 22 22 22 21 20 19 18 18 17 18 17 18 18 18 18 16
22 23 22 24 24 25 24 22 23 23 23 23 22 21 21 21 22 22 22 21 21 22 22 23 23 24 23 22 21 21 21 20 20 19 19 18 18 18 18 17 17 17 17
26 26 26 24 24 24 24 23 23 22 21 21 20 20 20 22 24 24 24 23 23 24 24 23 23 23 23 22 21 20 20 20 20 19 19 18 18 18 17 17 17 16 16
26 26 26 26 25 23 22 21 22 22 19 20 20 18 22 24 24 24 24 23 23 24 24 23 23 22 22 22 22 20 20 20 20 19 19 18 18 17 17 17 16 15 15
26 26 26 26 26 26 25 24 23 23 24 24 23 25 26 26 25 25 24 24 23 24 22 21 19 22 23 23 22 21 20 20 19 19 19 18 18 17 16 15 15 14 13
25 25 26 27 27 27 26 26 21 21 23 19 25 26 26 26 25 25 25 25 24 24 23 23 22 23 23 23 22 21 20 20 19 19 18 17 16 15 14 13 11 11 12
26 25 25 26 26 26 26 27 26 26 25 25 26 26 25 25 23 25 25 24 23 23 23 24 24 23 23 22 22 21 20 20 19 18 17 15 13 12 11 10 9 10 11
Height
773 775 779 792 792 792 790 795 803 808 811 815 816 820 821 821 822 825 827 828 830 831 832 835 836 835 836 836 838 838 837 838 836 840 841 842 844 844 843 841 844 840 839
770 775 782 782 782 787 795 799 805 807 812 812 816 818 819 821 821 823 826 829 830 831 833 835 836 837 837 838 838 838 839 840 838 838 839 842 841 841 841 838 842 836 839
769 772 777 782 782 788 796 796 800 804 808 811 815 817 819 820 820 824 827 828 830 831 833 835 836 837 837 837 837 837 838 837 840 839 837 837 838 837 837 837 836 836 836
767 770 774 779 784 788 792 794 795 799 801 806 811 816 818 819 820 823 826 827 829 830 833 834 835 837 837 837 838 837 837 837 837 838 834 833 832 832 834 833 831 833 831
766 769 775 778 782 787 789 791 794 799 802 807 810 814 817 818 819 821 824 826 828 830 832 832 833 832 833 835 835 835 836 837 835 832 829 828 829 831 832 830 831 830 829
767 771 774 777 782 786 790 791 795 798 802 806 810 812 814 815 816 820 822 824 825 827 828 829 829 830 832 833 834 835 836 837 836 833 830 828 829 831 831 831 832 832 830
769 771 774 775 779 785 789 792 797 798 802 806 808 810 813 813 814 817 819 821 823 823 824 826 826 825 827 829 831 833 833 833 834 835 833 832 833 831 832 832 832 832 830
769 775 776 780 780 782 789 794 797 800 802 805 807 809 811 812 813 814 817 820 821 822 822 823 824 824 826 827 829 828 827 828 829 830 829 829 830 830 830 830 830 828 826
772 777 777 782 782 786 789 794 797 798 800 803 805 807 808 809 811 814 817 819 819 819 819 819 820 821 823 824 825 825 825 825 823 823 824 825 825 825 825 826 825 824 819
772 776 780 780 783 787 791 794 795 796 798 801 803 804 807 808 809 812 815 815 814 813 812 814 816 818 819 820 821 822 823 822 820 819 819 819 818 817 817 818 818 819 816
774 777 777 780 783 786 789 792 794 796 798 801 801 802 804 805 806 808 810 811 810 808 808 807 809 809 812 815 816 818 817 817 817 817 815 813 810 809 809 810 810 811 810
772 774 776 779 782 785 789 791 793 794 795 797 799 800 799 800 802 803 805 807 808 808 806 805 804 804 807 809 811 811 811 813 814 811 808 805 803 802 803 804 802 804 804
771 773 776 778 780 783 786 788 790 792 791 793 792 793 791 792 795 797 799 801 803 804 804 801 802 805 806 806 806 806 806 807 806 804 801 799 797 797 798 799 798 797 797
770 772 775 777 779 780 782 783 784 783 784 785 784 785 783 784 786 788 791 794 796 799 800 800 799 800 801 801 800 799 798 798 798 797 795 794 793 792 792 793 792 791 791
767 769 771 773 776 777 778 776 777 778 777 778 780 779 778 778 779 781 783 787 789 791 794 796 794 792 792 791 789 789 787 786 788 789 790 790 790 790 789 788 788 788 788
764 765 764 764 766 769 769 772 774 774 775 776 776 777 777 777 779 780 782 784 786 788 790 789 786 785 783 782 780 779 779 780 781 782 783 784 784 783 782 781 781 781 778
759 758 758 760 757 759 763 766 768 768 768 770 771 772 773 774 775 778 780 781 782 783 784 784 782 779 776 774 773 773 774 774 775 776 776 777 777 777 778 778 778 777 775
756 756 754 753 755 754 755 759 761 761 760 762 762 763 764 766 769 772 775 777 779 777 777 776 773 770 768 767 766 767 768 768 769 771 772 773 773 774 774 774 773 772 771
751 751 752 752 750 749 749 750 753 756 751 751 750 751 754 756 760 764 767 768 769 768 765 764 763 761 759 756 758 760 763 763 764 764 765 767 768 769 769 768 766 766 767
745 745 746 745 746 746 746 747 747 750 753 750 751 749 749 752 754 754 755 757 758 757 756 754 753 750 747 748 751 754 756 759 759 759 760 760 761 762 760 759 759 757 758
737 736 737 739 740 737 740 742 741 742 742 743 745 747 746 743 744 742 740 740 745 745 744 743 742 741 740 738 742 745 748 750 751 750 751 751 752 752 753 752 752 752 752
721 721 722 727 730 731 732 734 734 734 732 733 737 736 736 736 734 733 732 733 734 733 731 730 729 729 731 732 732 735 738 740 742 742 742 743 744 744 745 745 745 747 749
716 716 716 717 719 720 727 723 725 723 725 725 725 724 723 722 723 723 722 722 721 718 717 715 717 717 715 719 721 724 726 730 732 733 733 734 735 736 737 737 738 741 742
712 710 710 709 709 710 710 711 712 711 710 712 707 708 708 709 710 710 710 710 713 709 708 720 709 711 710 705 709 713 715 718 722 722 723 724 725 727 730 732 734 738 739
709 707 703 700 699 698 697 696 699 698 702 705 701 699 699 700 700 701 699 699 698 696 692 698 700 697 693 693 698 701 702 705 708 711 713 716 719 722 725 726 730 735 734
698 699 697 694 695 694 691 688 688 691 691 690 688 689 692 692 698 692 692 693 690 691 690 685 681 680 679 682 685 688 692 694 695 697 703 708 713 715 720 725 730 731 728
Wind_Speed
26 32 38 36 20 26 35 34 23 17 13 15 13 11 10 9 10 9 7 8 9 6 3 4 2 1 5 1 1 2 1 1 3 4 2 3 1 2 3 3 5 6 4
33 35 41 35 26 30 21 16 18 15 15 13 11 10 11 10 11 9 9 8 7 5 6 5 5 5 3 3 3 4 3 1 5 2 3 6 3 2 2 3 5 6 5
27 29 29 20 21 19 18 21 17 17 14 11 11 11 12 11 9 9 9 9 10 10 10 9 7 6 6 5 4 4 4 5 4 7 2 8 3 4 3 9 7 8 9
23 25 23 22 20 21 20 17 20 18 17 15 14 14 13 12 12 11 11 10 9 9 9 9 9 8 7 4 4 4 5 4 7 7 9 6 7 7 6 7 11 11 9
17 21 22 25 25 21 19 16 17 17 15 14 14 12 12 12 12 12 12 11 11 10 11 10 9 8 7 7 6 3 3 7 10 10 7 6 7 3 6 10 10 10 9
19 20 19 17 16 15 16 17 15 15 16 14 14 15 14 14 16 15 12 12 11 10 9 8 7 9 12 13 13 11 8 6 9 10 12 9 6 6 7 9 12 14 13
12 15 16 18 20 19 17 17 16 16 17 16 13 13 12 9 11 15 14 7 9 9 9 9 9 12 13 9 11 10 12 14 15 12 11 13 14 8 10 9 11 12 14
12 10 11 14 21 22 19 17 16 16 14 14 14 13 12 9 8 12 13 8 9 10 10 10 10 9 9 9 10 12 12 12 14 15 16 17 16 16 15 14 13 17 19
12 12 15 17 17 16 16 17 17 16 15 13 13 12 11 11 11 13 14 12 12 12 12 11 11 12 12 12 12 13 13 14 14 18 20 20 20 21 20 18 22 20 20
12 15 16 16 17 15 16 18 14 13 13 13 13 12 13 12 14 14 15 12 13 14 13 13 14 16 15 14 14 13 14 14 13 13 18 21 22 22 21 25 24 21 22
13 15 15 13 15 15 15 13 13 13 13 11 12 12 12 13 12 14 15 15 15 14 12 15 17 21 15 18 21 17 18 16 15 14 17 19 22 25 27 27 25 25 23
16 14 14 13 13 13 13 12 12 11 10 11 11 12 16 17 17 16 17 19 19 18 16 15 12 14 16 14 17 21 23 23 21 21 21 21 21 20 17 20 23 22 22
14 13 13 12 12 13 13 13 13 12 13 13 15 15 15 15 17 19 19 20 21 23 18 19 17 8 11 15 21 24 23 19 20 22 23 23 22 21 20 22 20 19 18
14 12 12 12 12 12 13 14 14 16 17 16 17 15 15 16 15 17 21 22 22 23 25 26 25 22 20 21 19 20 21 21 22 22 22 23 21 18 15 14 15 17 17
15 14 13 14 15 15 15 16 18 17 15 14 17 16 15 15 6 11 14 19 19 21 23 21 22 23 21 24 24 25 25 25 21 18 18 18 15 15 15 17 17 16 17
17 17 17 17 20 15 17 13 16 19 11 19 20 17 14 10 6 5 5 9 10 10 10 18 19 19 20 21 18 22 14 14 17 21 16 15 18 19 20 18 17 20 21
20 17 18 16 15 16 15 11 14 23 25 25 25 26 26 23 21 17 13 14 16 17 14 21 23 23 23 21 22 18 17 17 12 12 17 17 19 19 17 18 20 19 19
22 21 17 17 16 17 20 21 19 21 22 24 30 32 31 31 30 29 26 23 18 21 23 26 25 25 24 25 19 19 19 18 18 17 18 18 18 17 17 19 17 18 17
24 24 23 21 19 18 18 16 16 19 15 16 17 22 27 27 26 29 28 25 24 25 26 26 28 28 29 25 19 19 19 20 18 18 19 19 18 18 18 20 19 18 17
23 25 24 23 22 24 17 21 19 21 20 21 18 25 20 25 21 22 26 26 26 26 26 25 28 28 32 24 19 19 20 21 21 19 20 20 20 20 21 19 19 17 14
23 28 32 27 25 22 23 29 21 26 20 22 15 25 30 26 22 21 24 27 25 24 23 25 26 25 28 26 24 22 25 25 24 23 22 22 21 21 21 21 20 18 19
23 21 21 29 26 24 23 19 28 23 19 20 24 37 40 29 26 26 24 23 28 28 26 26 25 26 25 22 28 28 28 28 26 25 24 24 23 22 22 22 21 19 20
19 17 20 19 22 26 31 22 32 25 29 18 34 40 33 29 28 27 26 30 33 33 33 30 30 28 25 28 28 30 29 28 27 26 26 25 24 24 22 21 17 20 19
20 18 19 20 21 24 25 23 24 31 23 27 33 29 20 19 21 26 30 29 31 31 32 35 33 30 29 27 26 31 30 31 30 29 28 27 25 22 19 19 15 12 17
20 23 24 23 23 24 26 23 30 33 16 36 35 19 22 23 23 20 22 25 27 29 26 28 31 32 26 27 30 32 34 35 34 32 27 26 23 16 11 6 4 15 18
22 23 27 19 20 23 26 23 22 19 24 30 22 23 26 25 26 21 17 22 23 34 28 30 26 28 29 30 31 33 37 38 36 37 27 19 13 12 7 6 17 22 19
Wind_Direction
176 164 165 161 183 197 214 215 233 248 223 212 213 218 212 185 169 165 158 170 178 184 168 192 237 255 324 54 39 5 70 277 258 67 104 114 265 327 331 331 288 271 264
175 167 170 183 195 209 209 212 229 210 203 201 199 199 187 183 170 165 175 188 187 192 200 185 202 206 204 167 179 166 99 294 350 197 136 212 175 207 263 293 305 323 306
177 179 187 198 199 200 198 191 190 187 185 183 194 196 190 186 180 190 197 194 196 189 193 194 188 186 202 195 269 192 177 216 217 283 222 211 220 235 245 265 255 270 280
194 186 187 190 197 192 189 180 179 184 188 199 192 197 196 195 193 192 193 191 189 186 188 194 189 194 201 208 230 254 253 278 229 252 253 257 239 169 249 266 257 223 304
168 168 173 176 183 187 191 199 198 193 179 184 183 190 193 194 191 186 186 187 188 191 196 199 204 205 204 203 249 242 307 239 265 261 260 258 248 337 348 328 308 299 304
145 145 154 159 168 181 175 167 170 175 173 182 189 192 196 201 196 183 185 187 190 198 204 214 224 222 238 241 249 261 255 264 275 293 301 315 336 304 296 333 339 326 315
151 157 164 160 162 162 165 167 175 178 178 188 188 191 192 164 174 187 184 197 204 213 218 227 235 246 199 222 239 243 252 249 248 260 277 287 307 299 298 304 298 311 303
142 155 147 160 158 162 171 175 178 180 180 182 180 180 184 191 200 193 200 213 224 232 233 230 236 258 248 246 247 236 248 247 242 242 251 257 260 262 271 274 273 281 280
150 163 164 170 159 167 166 181 186 177 177 180 182 186 193 200 209 199 199 214 227 235 236 239 247 249 248 250 250 257 263 264 262 239 245 249 257 260 262 272 276 279 281
180 177 173 164 168 170 184 183 178 175 179 186 187 191 202 204 196 207 212 231 237 235 228 233 236 242 245 250 243 246 253 256 256 270 242 250 254 260 258 251 254 258 268
179 183 164 170 182 177 172 176 176 185 180 205 194 204 214 210 215 218 226 229 246 240 244 237 235 228 224 235 246 241 245 253 260 256 258 254 250 248 249 255 248 241 256
177 173 169 172 176 171 177 181 186 192 200 200 217 223 223 218 223 231 233 235 237 257 270 267 281 235 215 227 241 248 251 249 257 260 264 268 268 265 269 273 257 245 252
181 177 176 177 185 175 186 191 199 202 232 217 216 226 237 219 220 224 232 240 240 241 249 267 285 272 235 242 250 256 258 252 251 257 261 266 271 276 275 273 268 276 274
184 181 184 188 194 199 200 204 218 223 215 226 237 235 234 227 222 215 215 226 235 245 248 253 261 262 259 256 259 251 246 241 250 263 276 281 284 280 282 282 284 287 284
187 187 190 199 197 202 224 221 221 228 241 228 229 239 236 238 239 231 217 210 218 227 232 243 248 237 238 239 234 235 237 226 223 241 254 272 281 291 284 280 280 277 271
192 197 204 215 188 211 219 218 250 258 252 246 259 274 277 291 314 301 256 233 249 253 233 241 261 267 262 264 262 255 258 260 254 251 245 252 255 262 265 262 262 264 264
210 209 217 219 237 202 206 244 258 223 224 229 234 247 257 259 264 269 265 260 260 263 261 254 257 263 267 263 246 251 258 258 259 262 259 268 270 272 275 272 270 270 271
215 227 236 224 220 254 203 210 219 254 214 220 231 232 235 240 244 249 257 260 258 259 248 251 253 252 253 254 255 256 257 260 259 250 251 254 257 262 267 267 262 265 279
219 228 225 243 251 238 249 231 216 259 281 297 277 219 222 232 235 239 247 245 246 254 252 241 242 247 251 248 255 250 254 252 247 246 248 248 251 251 257 259 262 255 256
229 237 241 235 231 245 244 254 251 245 255 254 259 282 221 215 218 222 230 237 240 244 251 252 251 252 232 247 245 245 243 243 242 241 241 246 247 246 248 257 262 270 238
223 229 219 231 247 245 233 238 247 257 245 270 237 264 271 202 220 232 253 213 224 234 243 249 257 260 253 233 231 234 242 245 240 236 236 236 238 243 248 251 256 258 260
226 236 222 213 232 241 249 259 256 244 264 237 259 256 256 212 234 253 255 256 261 263 258 251 243 245 258 246 227 226 235 241 242 240 238 239 240 243 247 251 248 255 260
244 248 253 249 226 225 238 230 242 244 234 213 230 253 240 217 233 239 241 244 247 249 251 248 246 238 241 243 238 229 231 237 241 240 238 239 239 242 245 250 252 230 243
256 262 253 252 241 249 250 241 247 255 233 247 235 238 251 251 235 235 242 238 247 239 248 255 281 252 246 249 245 235 232 235 240 243 236 238 238 239 243 252 264 281 237
247 262 268 262 262 256 248 247 213 224 246 259 250 245 257 244 237 249 265 269 286 270 262 248 236 238 250 250 249 249 234 235 237 236 237 234 235 239 243 255 293 270 266
235 240 251 266 268 269 268 258 257 266 261 263 258 242 240 252 261 258 261 278 263 267 276 269 266 259 251 250 251 243 245 246 237 224 217 204 201 184 177 275 253 256 240